TimeCST,TemperatureF,Dew PointF,Humidity,Sea Level PressureIn,VisibilityMPH,Wind Direction,Wind SpeedMPH,Gust SpeedMPH,PrecipitationIn,Events,Conditions,WindDirDegrees,DateUTC
12:15 AM,6.8,3.2,85,30.10,0.8,SSW,3.5,-,N/A,Snow,Light Snow,210,2013-02-02 06:15:00
12:35 AM,6.8,3.2,85,30.09,1.0,Calm,Calm,-,N/A,Snow,Light Snow,0,2013-02-02 06:35:00
12:55 AM,6.8,5.0,92,30.08,1.0,Calm,Calm,-,N/A,Snow,Light Snow,0,2013-02-02 06:55:00
1:15 AM,8.6,5.0,85,30.07,1.2,South,3.5,-,N/A,Snow,Light Snow,190,2013-02-02 07:15:00
1:35 AM,8.6,5.0,85,30.07,0.8,Calm,Calm,-,N/A,Snow,Light Snow,0,2013-02-02 07:35:00
1:55 AM,8.6,5.0,85,30.06,1.2,Calm,Calm,-,N/A,Snow,Light Snow,0,2013-02-02 07:55:00
2:15 AM,8.6,5.0,85,30.06,0.8,Calm,Calm,-,N/A,Snow,Light Snow,0,2013-02-02 08:15:00
2:35 AM,8.6,6.8,92,30.05,1.0,Calm,Calm,-,N/A,Snow,Light Snow,0,2013-02-02 08:35:00
2:55 AM,8.6,6.8,92,30.04,0.8,Calm,Calm,-,N/A,Snow,Light Snow,0,2013-02-02 08:55:00
3:15 AM,8.6,6.8,92,30.03,0.5,Calm,Calm,-,N/A,Snow,Light Snow,0,2013-02-02 09:15:00
3:35 AM,8.6,6.8,92,30.02,1.2,Calm,Calm,-,N/A,Snow,Light Snow,0,2013-02-02 09:35:00
3:55 AM,8.6,6.8,92,30.02,1.8,Calm,Calm,-,N/A,Snow,Light Snow,0,2013-02-02 09:55:00
4:15 AM,8.6,6.8,92,30.01,3.0,NNE,3.5,-,N/A,Snow,Light Snow,30,2013-02-02 10:15:00
4:35 AM,8.6,6.8,92,30.01,2.5,Calm,Calm,-,N/A,Snow,Light Snow,0,2013-02-02 10:35:00
6:45 AM,6.8,3.2,85,30.02,4.0,NNW,9.2,-,N/A,Snow,Light Snow,340,2013-02-02 12:45:00
7:45 AM,6.8,1.4,79,30.05,7.0,NNW,9.2,-,N/A,,Overcast,340,2013-02-02 13:45:00
8:45 AM,6.8,1.4,79,30.05,5.0,North,6.9,-,N/A,Snow,Light Snow,350,2013-02-02 14:45:00
9:45 AM,6.8,-0.4,72,30.06,10.0,NW,9.2,-,N/A,,Overcast,320,2013-02-02 15:45:00
10:45 AM,6.8,-0.4,72,30.06,10.0,NW,11.5,-,N/A,,Overcast,320,2013-02-02 16:45:00
11:45 AM,8.6,-0.4,67,30.05,10.0,NW,9.2,-,N/A,,Mostly Cloudy,320,2013-02-02 17:45:00
12:45 PM,8.6,-0.4,67,30.05,10.0,North,9.2,-,N/A,,Mostly Cloudy,350,2013-02-02 18:45:00
1:45 PM,8.6,-0.4,67,30.05,10.0,NNW,5.8,-,N/A,,Mostly Cloudy,330,2013-02-02 19:45:00
2:45 PM,8.6,-0.4,67,30.05,10.0,NW,9.2,-,N/A,,Mostly Cloudy,320,2013-02-02 20:45:00
3:45 PM,8.6,-2.2,62,30.06,10.0,NW,9.2,-,N/A,,Scattered Clouds,310,2013-02-02 21:45:00
4:45 PM,6.8,-2.2,67,30.07,10.0,WNW,6.9,-,N/A,,Scattered Clouds,300,2013-02-02 22:45:00
5:45 PM,5.0,-2.2,72,30.07,10.0,NW,4.6,-,N/A,,Clear,320,2013-02-02 23:45:00
6:45 PM,5.0,-2.2,72,30.08,10.0,WNW,6.9,-,N/A,,Overcast,290,2013-02-03 00:45:00
7:45 PM,5.0,-2.2,72,30.07,10.0,West,4.6,-,N/A,,Overcast,280,2013-02-03 01:45:00
8:15 PM,5.0,-0.4,78,30.06,10.0,West,8.1,-,N/A,,Overcast,280,2013-02-03 02:15:00
8:35 PM,5.0,-0.4,78,30.05,10.0,WNW,4.6,-,N/A,,Overcast,290,2013-02-03 02:35:00
8:45 PM,3.2,-2.2,78,30.05,10.0,WNW,4.6,-,N/A,,Scattered Clouds,300,2013-02-03 02:45:00
8:55 PM,5.0,-0.4,78,30.05,10.0,WNW,3.5,-,N/A,,Scattered Clouds,290,2013-02-03 02:55:00
9:15 PM,3.2,-2.2,78,30.04,10.0,Calm,Calm,-,N/A,,Clear,0,2013-02-03 03:15:00
9:35 PM,-0.4,-5.8,78,30.03,10.0,Calm,Calm,-,N/A,,Clear,0,2013-02-03 03:35:00
9:55 PM,3.2,-2.2,78,30.02,10.0,Calm,Calm,-,N/A,,Clear,0,2013-02-03 03:55:00
10:15 PM,-0.4,-5.8,78,30.02,10.0,WSW,3.5,-,N/A,,Clear,240,2013-02-03 04:15:00
10:35 PM,1.4,-4.0,78,30.01,10.0,WSW,4.6,-,N/A,,Scattered Clouds,250,2013-02-03 04:35:00
10:55 PM,3.2,-4.0,72,30.01,10.0,WSW,3.5,-,N/A,,Scattered Clouds,250,2013-02-03 04:55:00
11:15 PM,1.4,-4.0,78,30.00,10.0,Calm,Calm,-,N/A,,Clear,0,2013-02-03 05:15:00
11:35 PM,1.4,-2.2,85,30.00,10.0,Calm,Calm,-,N/A,,Scattered Clouds,0,2013-02-03 05:35:00
11:55 PM,3.2,-2.2,78,29.99,10.0,Calm,Calm,-,N/A,,Mostly Cloudy,0,2013-02-03 05:55:00